Tracking 18852 objects as of 24-Nov-2017
HD Live streaming from Space Station
objects crossing your sky now

DIRECTV 4S

Track DIRECTV 4S now!
DIRECTV 4S is classified as:


NORAD ID: 26985
Int'l Code: 2001-052A
Perigee: 35,782.6 km
Apogee: 35,804.6 km
Inclination: 0.0 °
Period: 1,436.1 minutes
Semi major axis: 42164 km
RCS: 15.4247 m2 (large)
Launch date: November 27, 2001
Source: United States (US)
Launch site: FRENCH GUIANA (FRGUI)

Direct broadcasting; 48 Ku-band; 300 local TV channels to 41 metropolitan communities through 11 C-band transponders.
aabbcc
Your satellite tracking list
Your tracking list is empty




NASA's NSSDC Master Catalog

Two Line Element Set (TLE):
1 26985U 01052A   17327.58309865 -.00000108  00000-0  00000+0 0  9991
2 26985   0.0170  54.8639 0002608 180.0087 296.6292  1.00272283 58638
Source of the keplerian elements: AFSPC